Temp
26 26 26 26 26 26 26 26 26 27 28 27 27 27 26 26 26 25 25 25 24 24 24 24 23 24 24 24 25 25 25 31 26 28 31 30 29 28 29 29 29 29 30
26 26 25 25 25 24 24 24 25 25 26 26 26 25 25 25 25 24 23 23 24 22 22 22 22 24 23 25 25 24 25 27 31 27 28 28 28 28 27 26 27 28 28
25 25 25 24 24 23 23 23 24 23 24 24 25 24 23 23 23 24 23 22 22 22 22 21 22 22 21 24 25 25 25 25 27 27 24 27 27 27 25 26 26 26 27
25 24 23 24 24 24 24 24 24 23 22 22 22 22 23 23 23 23 23 23 23 23 24 24 23 23 22 23 23 23 24 24 24 24 23 24 24 25 24 22 20 24 23
24 23 23 24 24 25 24 24 25 25 25 24 23 23 23 23 23 22 22 22 21 21 23 25 26 27 27 26 26 25 25 23 23 23 22 22 22 20 18 19 18 20 22
24 23 24 24 25 25 25 25 25 24 24 25 24 25 24 25 27 27 25 23 23 23 22 23 24 25 26 26 26 25 25 23 21 21 20 19 19 18 19 18 17 16 15
23 23 24 24 24 24 25 25 24 24 24 24 24 25 25 27 28 27 26 24 24 23 24 25 24 24 24 24 23 23 22 22 22 21 18 18 17 19 19 17 17 17 16
23 23 23 23 22 23 23 22 24 24 24 25 25 26 26 27 28 26 25 24 23 23 23 24 24 24 25 23 23 22 22 21 21 21 21 20 21 22 21 20 18 16 17
22 22 23 23 22 22 22 22 24 24 24 24 25 26 26 27 27 26 25 24 23 22 22 22 23 24 25 26 23 21 20 21 23 22 24 24 23 22 21 17 13 12 10
22 22 23 23 23 22 23 23 24 25 24 25 24 25 26 26 27 26 25 24 22 21 21 21 20 23 25 25 23 19 16 18 19 17 17 17 17 16 16 15 13 8 9
22 23 22 22 22 23 22 23 23 22 22 22 21 22 23 24 28 27 25 24 22 21 20 20 20 20 24 24 24 19 17 22 15 12 12 13 14 14 15 15 14 11 8
22 21 20 21 23 22 19 20 20 20 19 19 20 21 22 22 25 26 27 26 23 21 20 20 20 22 22 22 21 19 22 19 14 12 11 12 13 13 14 14 12 11 12
18 16 17 18 19 20 20 19 20 20 21 20 21 22 22 22 23 23 24 25 24 23 22 21 22 21 20 18 17 18 15 13 12 10 10 11 12 12 10 9 11 12 11
16 16 17 18 18 19 22 22 22 22 21 20 21 21 21 22 23 25 25 25 23 23 21 19 18 18 17 16 12 14 13 12 10 8 8 10 10 9 8 10 8 10 9
17 17 19 20 20 20 21 22 21 21 22 21 21 21 20 21 23 24 26 26 25 23 15 17 16 16 15 15 15 14 13 11 9 10 8 8 7 7 7 9 8 8 6
17 18 20 21 20 21 21 21 22 23 23 23 23 21 21 22 24 25 26 26 26 24 17 15 14 14 12 12 11 11 12 10 11 10 8 7 6 5 5 7 7 6 5
20 21 20 18 20 20 19 20 20 22 24 26 27 27 27 26 26 26 25 26 26 21 13 13 13 12 12 12 11 10 9 11 8 5 5 5 4 4 3 3 4 5 4
16 15 20 21 20 20 20 19 19 19 19 21 24 25 26 26 27 26 26 25 19 18 13 10 11 12 12 11 10 10 10 9 8 7 5 5 3 2 1 2 3 2 3
16 18 18 19 19 18 19 18 17 17 16 17 18 17 18 23 24 25 25 22 19 17 14 12 11 11 10 10 10 8 7 6 5 3 2 2 2 1 0 1 2 1 2
14 14 15 17 16 15 16 15 16 15 15 15 16 17 19 9 14 16 17 16 14 13 13 12 13 12 11 9 8 7 6 5 5 4 3 3 3 2 1 1 1 2 3
16 16 13 14 15 15 15 14 15 15 15 15 16 18 20 13 15 16 17 16 14 14 14 13 13 12 11 9 8 6 5 4 4 3 3 2 2 0 2 2 2 3 3
17 17 14 13 15 14 13 14 14 14 14 14 16 18 21 19 16 14 15 16 17 16 15 14 12 12 11 9 8 6 5 4 4 4 3 2 1 1 1 1 1 2 3
16 17 16 15 15 15 14 13 13 13 14 14 15 15 16 14 16 17 17 17 17 16 15 12 9 8 9 7 6 5 3 3 4 4 2 1 0 -0 0 -0 1 1 2
16 16 16 16 15 14 14 14 14 13 14 14 15 15 15 15 15 15 15 17 16 16 16 13 10 8 8 8 7 6 4 3 3 2 0 -2 -3 -2 -2 -0 2 3 4
16 16 16 16 16 15 14 14 14 15 15 15 14 15 15 16 16 16 16 16 15 15 15 14 11 9 8 6 5 4 3 3 2 1 1 -1 -2 -2 -1 0 0 1 4
16 16 16 16 16 16 16 15 15 15 15 16 15 15 15 16 16 16 16 16 15 14 14 13 11 10 8 7 6 5 3 4 3 3 3 4 4 6 8 10 10 11 11
MSLP
1017.44 1017.07 1016.78 1016.63 1016.50 1016.31 1016.09 1015.90 1015.68 1015.63 1015.66 1015.65 1015.48 1015.77 1015.54 1016.19 1015.88 1017.43 1017.44 1016.42 1017.37 1018.28 1018.69 1019.24 1019.16 1019.71 1020.11 1020.30 1020.46 1020.72 1020.67 1020.40 1021.80 1023.62 1023.92 1024.67 1024.88 1025.21 1024.84 1024.83 1025.10 1024.93 1024.19
1018.12 1017.80 1017.63 1017.57 1017.48 1017.35 1017.12 1016.92 1016.84 1016.82 1016.87 1016.70 1016.87 1016.63 1016.79 1017.44 1017.66 1018.19 1017.31 1018.48 1019.15 1019.69 1020.25 1020.49 1020.70 1020.83 1020.98 1021.11 1021.63 1022.02 1022.13 1022.02 1022.15 1023.50 1024.18 1024.46 1024.77 1025.25 1025.20 1024.86 1025.12 1024.89 1024.63
1018.90 1018.57 1018.42 1018.43 1018.43 1018.41 1018.18 1018.02 1017.92 1018.03 1018.25 1018.31 1018.13 1017.82 1017.49 1018.70 1019.32 1019.99 1019.02 1020.26 1020.57 1020.98 1022.12 1021.56 1021.80 1021.73 1022.28 1022.26 1022.55 1023.21 1023.44 1023.82 1023.75 1023.89 1024.30 1024.65 1024.74 1025.38 1025.43 1024.78 1024.63 1024.51 1024.20
1019.75 1019.49 1019.36 1019.27 1019.28 1019.25 1019.27 1019.12 1019.01 1019.36 1019.29 1019.53 1019.62 1019.34 1019.56 1020.23 1020.94 1020.44 1021.22 1020.99 1021.87 1022.38 1022.18 1023.25 1022.94 1022.61 1022.61 1023.81 1024.00 1024.36 1024.85 1024.52 1024.33 1024.67 1024.66 1024.80 1025.06 1025.39 1025.28 1024.97 1024.10 1024.01 1023.83
1020.67 1020.47 1020.39 1020.41 1020.30 1020.17 1020.20 1020.41 1020.15 1020.21 1020.60 1020.82 1020.83 1020.92 1021.24 1021.24 1021.91 1022.21 1022.50 1022.75 1022.70 1023.22 1023.01 1023.27 1023.75 1024.47 1024.08 1024.29 1024.42 1024.95 1025.27 1024.60 1024.98 1024.93 1024.57 1024.71 1025.23 1025.11 1025.18 1025.00 1024.61 1023.98 1023.58
1021.70 1021.48 1021.45 1021.40 1021.33 1021.31 1021.45 1021.40 1020.85 1021.33 1021.61 1021.69 1021.76 1021.82 1022.32 1022.63 1022.93 1022.83 1023.19 1023.00 1023.86 1024.33 1024.87 1025.40 1025.44 1025.40 1024.95 1025.25 1025.45 1025.90 1025.61 1025.24 1025.22 1024.84 1025.32 1025.58 1025.85 1025.41 1025.36 1025.33 1024.53 1024.29 1022.38
1022.60 1022.59 1022.58 1022.63 1022.54 1022.50 1022.38 1021.99 1021.95 1022.64 1022.95 1022.84 1023.01 1023.40 1023.13 1023.44 1023.92 1023.83 1023.74 1024.24 1024.92 1025.31 1025.61 1025.59 1025.42 1025.86 1025.87 1025.91 1025.88 1025.75 1025.65 1025.64 1025.55 1026.00 1026.19 1026.14 1025.95 1025.89 1025.48 1024.97 1024.39 1023.71 1023.06
1023.58 1023.55 1023.59 1023.58 1023.60 1023.54 1023.36 1023.27 1023.62 1023.75 1023.81 1023.74 1024.19 1024.27 1024.15 1024.19 1024.27 1024.37 1025.00 1025.38 1025.64 1026.00 1025.84 1026.07 1026.04 1025.85 1025.86 1025.84 1025.86 1026.08 1026.28 1026.09 1026.14 1026.33 1026.35 1026.23 1025.88 1025.24 1024.98 1024.44 1024.03 1023.43 1022.88
1024.52 1024.56 1024.43 1024.34 1024.21 1024.22 1024.17 1024.23 1024.37 1024.46 1024.72 1025.02 1025.17 1025.19 1025.21 1025.19 1025.20 1025.49 1025.71 1025.94 1026.13 1026.36 1026.59 1026.53 1026.28 1026.06 1025.84 1025.79 1026.25 1026.22 1026.12 1026.09 1025.86 1025.89 1025.76 1025.54 1025.12 1024.61 1024.56 1024.36 1023.41 1023.34 1022.15
1025.24 1025.19 1025.11 1024.98 1024.88 1024.84 1024.99 1025.12 1025.13 1025.16 1025.28 1025.43 1025.57 1025.67 1025.57 1025.67 1025.75 1025.97 1026.08 1026.23 1026.42 1026.71 1026.73 1026.80 1026.97 1026.55 1026.17 1026.15 1026.29 1026.53 1026.29 1025.86 1025.82 1026.04 1025.81 1025.36 1025.09 1024.87 1024.55 1024.47 1024.01 1023.15 1022.19
1025.54 1025.43 1025.46 1025.52 1025.54 1025.55 1025.48 1025.50 1025.55 1025.69 1025.97 1026.22 1026.28 1026.38 1026.36 1026.29 1026.03 1026.08 1026.47 1026.45 1026.69 1026.78 1026.82 1026.76 1026.96 1027.10 1026.53 1026.32 1026.14 1026.37 1026.32 1025.72 1026.11 1025.96 1025.42 1025.07 1024.61 1024.16 1023.72 1023.41 1023.24 1023.09 1022.40
1025.82 1025.92 1026.02 1026.05 1025.96 1026.02 1026.08 1026.36 1026.38 1026.40 1026.56 1026.77 1026.86 1026.91 1026.98 1027.01 1026.52 1026.46 1026.31 1026.25 1026.77 1026.81 1026.85 1027.17 1027.40 1027.03 1026.74 1026.49 1026.29 1026.34 1025.74 1025.69 1025.81 1025.55 1025.21 1024.49 1023.87 1023.42 1022.85 1022.62 1022.55 1022.39 1021.86
1026.22 1026.43 1026.56 1026.64 1026.70 1026.79 1026.80 1026.89 1026.83 1026.88 1026.75 1026.80 1026.87 1026.88 1026.87 1026.94 1026.95 1027.10 1027.03 1026.84 1026.98 1026.94 1027.20 1027.23 1026.82 1026.87 1026.63 1026.53 1026.42 1026.05 1025.95 1025.82 1025.38 1024.99 1024.29 1023.61 1023.22 1022.85 1022.66 1022.27 1021.64 1021.20 1020.52
1026.42 1026.51 1026.66 1026.64 1026.72 1026.81 1026.81 1026.79 1026.61 1026.66 1026.75 1026.90 1026.99 1027.02 1027.14 1027.22 1027.21 1027.11 1027.03 1026.79 1026.88 1026.81 1026.89 1026.79 1026.71 1026.40 1026.21 1026.11 1026.17 1025.73 1025.54 1025.25 1024.93 1024.51 1023.90 1023.39 1023.13 1022.80 1022.23 1021.77 1021.07 1020.27 1019.27
1026.59 1026.74 1026.75 1026.70 1026.61 1026.50 1026.46 1026.43 1026.53 1026.72 1026.78 1026.75 1026.84 1026.94 1027.04 1026.91 1026.80 1026.70 1026.22 1026.02 1025.96 1026.06 1026.88 1026.45 1026.12 1025.86 1025.53 1025.22 1024.97 1024.83 1024.78 1024.68 1024.47 1024.07 1023.63 1023.24 1022.77 1022.18 1021.52 1021.10 1020.48 1019.64 1018.74
1026.08 1026.23 1026.15 1026.13 1026.18 1026.22 1026.36 1026.63 1026.73 1026.65 1026.68 1026.56 1026.56 1026.78 1026.72 1026.57 1026.16 1025.88 1025.68 1025.50 1025.39 1025.55 1026.21 1026.13 1025.85 1025.61 1025.36 1025.04 1024.76 1024.40 1024.22 1024.08 1023.71 1023.51 1023.17 1022.68 1022.11 1021.48 1020.87 1020.27 1019.75 1018.93 1017.66
1024.95 1024.94 1025.12 1025.29 1025.43 1025.63 1025.94 1026.02 1025.82 1025.75 1025.61 1025.38 1025.28 1025.30 1025.23 1025.06 1025.05 1025.10 1025.22 1025.17 1024.90 1025.54 1026.08 1025.86 1025.57 1025.30 1024.94 1024.67 1024.44 1024.13 1023.67 1023.40 1023.43 1023.25 1022.72 1022.07 1021.56 1020.88 1020.36 1019.37 1018.56 1017.73 1016.35
1024.96 1024.98 1024.80 1024.72 1024.95 1025.18 1025.27 1025.29 1025.40 1025.45 1025.29 1025.01 1024.87 1024.71 1024.52 1024.49 1024.48 1024.63 1024.73 1024.89 1025.12 1025.30 1025.49 1025.38 1025.01 1024.67 1024.34 1024.04 1023.75 1023.42 1023.00 1022.76 1022.58 1022.24 1021.77 1021.27 1020.81 1020.19 1019.32 1018.41 1017.49 1016.51 1015.28
1024.47 1024.24 1024.41 1024.59 1024.88 1024.99 1025.07 1025.21 1025.33 1025.32 1025.14 1024.88 1024.86 1024.89 1024.76 1024.43 1024.20 1024.12 1024.19 1024.06 1024.16 1024.26 1024.41 1024.36 1024.14 1023.85 1023.55 1023.28 1023.00 1022.78 1022.56 1022.10 1021.75 1021.49 1020.97 1020.46 1019.88 1019.26 1018.16 1017.24 1016.20 1015.14 1014.18
1023.33 1023.29 1023.44 1023.42 1023.59 1024.09 1024.49 1024.74 1024.79 1024.78 1024.62 1024.34 1024.15 1023.91 1024.32 1024.72 1024.17 1023.69 1023.67 1023.62 1023.55 1023.39 1023.35 1023.34 1022.94 1022.64 1022.43 1022.28 1022.12 1021.93 1021.60 1021.11 1020.60 1020.23 1019.66 1019.15 1018.48 1017.87 1016.85 1015.88 1014.84 1013.64 1012.39
1022.32 1022.53 1022.79 1023.14 1023.24 1023.42 1023.60 1023.77 1023.93 1023.95 1023.67 1023.40 1023.00 1022.93 1023.15 1023.44 1022.97 1022.64 1022.36 1022.25 1022.17 1022.01 1022.03 1021.95 1021.60 1021.37 1021.28 1021.21 1021.08 1020.85 1020.51 1019.97 1019.46 1018.98 1018.44 1017.74 1017.09 1016.34 1015.59 1014.53 1013.34 1012.18 1010.95
1021.22 1021.52 1022.10 1022.38 1022.47 1022.67 1022.80 1022.92 1022.87 1022.70 1022.52 1022.28 1021.82 1021.93 1022.13 1022.07 1021.75 1021.53 1021.20 1020.87 1020.64 1020.65 1020.60 1020.61 1020.38 1020.09 1019.92 1019.95 1019.86 1019.65 1019.30 1018.73 1018.13 1017.64 1017.03 1016.39 1015.75 1015.00 1014.14 1012.99 1011.79 1010.65 1009.45
1020.17 1020.43 1020.74 1021.06 1021.36 1021.61 1021.79 1021.83 1021.78 1021.59 1021.30 1021.13 1021.11 1021.01 1020.97 1020.85 1020.42 1019.99 1019.61 1019.34 1019.31 1019.24 1019.19 1019.28 1019.11 1018.90 1018.78 1018.78 1018.72 1018.48 1018.11 1017.39 1016.75 1016.37 1015.86 1015.17 1014.37 1013.57 1012.71 1011.49 1010.28 1009.07 1007.86
1019.17 1019.29 1019.47 1019.63 1019.93 1020.19 1020.33 1020.22 1020.20 1020.16 1020.02 1019.85 1019.83 1019.77 1019.67 1019.41 1019.02 1018.61 1018.40 1018.21 1018.04 1017.80 1017.66 1017.58 1017.60 1017.55 1017.38 1017.27 1017.09 1016.85 1016.44 1015.91 1015.53 1015.12 1014.91 1014.09 1013.01 1012.03 1011.13 1009.83 1008.53 1007.18 1005.84
1018.01 1018.24 1018.48 1018.61 1018.70 1018.72 1018.87 1018.94 1018.85 1018.82 1018.78 1018.65 1018.51 1018.41 1018.34 1018.22 1017.94 1017.67 1017.50 1017.33 1017.09 1016.78 1016.42 1016.30 1016.43 1016.34 1016.13 1015.92 1015.68 1015.30 1014.81 1014.36 1014.07 1013.68 1013.23 1012.49 1011.37 1010.27 1009.22 1007.91 1006.49 1005.19 1003.71
1016.68 1016.92 1017.13 1017.51 1017.62 1017.73 1017.72 1017.71 1017.65 1017.66 1017.55 1017.44 1017.35 1017.21 1017.05 1016.79 1016.54 1016.41 1016.20 1016.09 1015.95 1015.70 1015.41 1015.33 1015.35 1015.19 1014.91 1014.66 1014.24 1013.72 1013.25 1012.77 1012.38 1011.68 1011.13 1010.19 1008.95 1007.45 1006.17 1004.97 1003.60 1002.32 1000.83
Wind_Speed
8 9 9 9 10 9 9 10 11 11 11 11 14 13 15 15 17 14 12 18 17 14 13 13 15 12 9 9 8 7 6 4 7 3 3 3 2 3 4 5 6 7 7
8 9 10 10 9 10 11 12 12 13 13 13 13 16 15 16 15 17 14 16 15 14 13 12 13 9 11 10 9 10 9 8 4 6 3 1 3 3 5 7 5 6 8
8 10 11 11 11 11 12 13 13 13 14 14 14 16 18 16 14 11 17 15 15 14 11 12 12 12 11 10 11 8 7 7 6 4 3 0 1 3 6 6 6 7 7
8 10 11 11 11 11 12 14 14 13 14 15 15 16 16 14 12 13 14 15 14 12 13 11 12 13 13 10 8 8 5 5 5 4 2 1 1 2 6 7 8 7 10
9 11 11 11 11 12 13 12 15 15 14 13 14 14 13 13 9 12 12 13 14 12 13 13 14 12 18 12 6 7 4 4 3 3 3 3 3 6 7 6 9 11 11
10 10 10 11 11 12 13 11 15 15 12 13 13 14 13 10 19 19 14 13 12 12 10 9 9 10 15 16 14 12 10 5 4 3 3 4 6 6 7 8 9 10 7
10 10 10 10 12 12 12 14 15 13 12 13 13 11 13 13 18 18 17 11 10 10 9 8 8 6 7 7 10 10 10 11 8 5 5 6 8 8 10 12 12 11 11
8 8 8 9 9 10 11 12 11 10 10 10 10 11 11 10 16 17 15 10 10 9 9 8 7 7 6 5 7 6 5 5 4 3 5 7 9 10 12 12 13 14 11
6 6 7 7 8 9 10 10 9 10 10 9 9 10 10 10 13 11 9 8 8 8 6 7 7 6 9 9 5 6 6 6 5 9 13 16 19 20 15 9 8 9 10
5 6 6 6 7 9 9 8 8 9 9 8 9 8 10 9 12 10 7 4 5 4 5 5 6 7 10 10 7 6 7 8 8 7 9 12 12 12 14 9 7 8 9
4 5 6 6 6 6 7 7 7 8 8 7 7 7 7 8 8 10 9 5 4 3 3 3 4 8 9 10 9 4 7 10 6 7 8 8 8 8 7 6 7 7 9
5 5 5 4 4 4 7 5 6 6 6 5 4 4 3 4 7 7 7 7 3 3 3 3 4 10 10 11 8 10 13 9 6 7 7 8 7 7 7 7 10 10 11
4 4 4 4 4 3 5 4 4 3 3 3 2 2 2 3 3 4 5 4 3 4 4 6 9 10 9 7 8 12 8 5 5 7 7 8 7 9 11 10 11 12 14
5 5 4 4 4 3 3 3 3 3 3 3 2 2 2 2 3 3 3 4 5 4 5 4 7 9 8 7 5 5 4 5 6 8 8 9 9 9 10 9 10 10 11
6 5 6 5 5 4 2 2 2 2 3 3 3 3 4 5 4 6 5 4 4 4 3 5 5 6 6 6 6 6 6 6 7 7 8 9 10 10 10 9 10 10 12
8 7 6 5 4 3 3 3 6 7 9 10 8 8 5 10 9 9 10 11 11 9 5 6 7 6 7 7 8 8 7 7 7 8 9 9 10 10 10 10 10 10 12
9 8 7 7 6 6 6 5 5 5 9 11 13 13 14 12 11 11 11 13 14 5 5 7 7 7 8 7 8 8 9 8 8 8 9 10 10 10 11 11 11 11 13
8 5 7 5 5 6 6 5 4 5 6 7 11 14 15 16 15 14 15 13 7 7 7 8 8 8 8 8 8 9 9 9 8 9 10 10 10 10 11 12 11 13 13
9 7 7 6 6 5 5 5 6 6 8 8 7 8 9 15 15 15 17 9 9 9 8 9 8 8 8 8 8 8 9 10 10 9 10 9 10 10 12 12 13 18 18
10 10 9 8 7 7 7 7 8 9 9 9 8 9 5 2 6 8 8 8 9 9 8 9 8 8 9 8 9 8 9 10 10 10 10 10 10 10 12 13 13 14 14
8 8 11 7 7 7 8 9 8 8 9 9 10 9 14 8 8 8 8 9 9 9 9 9 8 8 8 8 8 9 9 10 10 10 10 10 10 11 12 13 14 14 15
8 8 7 9 7 8 8 7 8 9 10 11 10 10 19 10 10 10 10 11 10 10 8 9 9 8 8 8 9 10 10 11 11 10 11 11 11 12 12 14 14 14 15
9 9 9 8 8 9 8 9 9 10 11 11 10 10 9 9 11 11 12 11 10 9 9 9 9 9 8 8 9 10 10 11 11 10 12 12 12 12 12 14 14 15 14
9 10 10 9 8 9 10 10 10 14 13 11 10 10 10 10 11 13 12 11 10 10 9 9 9 11 9 10 9 9 10 11 10 11 14 13 14 15 14 15 15 18 18
10 10 10 10 10 10 10 11 11 11 11 11 11 10 10 10 11 11 11 10 10 10 12 9 8 11 14 16 15 16 16 20 17 16 12 16 19 21 19 16 18 17 21
10 11 10 9 10 10 10 10 10 10 11 11 10 10 11 11 10 10 10 10 9 10 11 8 9 14 15 13 16 18 18 19 17 20 15 15 16 17 16 19 25 18 22
Wind_Direction
37 44 48 48 50 52 59 60 62 64 65 70 75 74 73 70 67 63 57 78 78 69 64 66 63 62 52 44 46 41 48 49 107 105 96 138 172 340 340 336 315 315 313
42 59 59 58 59 62 63 63 63 67 64 68 74 78 74 77 78 76 76 66 66 72 69 73 69 65 65 59 55 47 46 33 85 127 127 127 248 302 316 315 301 298 297
42 61 65 65 66 67 68 68 64 65 66 67 70 76 70 69 70 72 77 83 75 72 62 66 76 73 63 62 62 61 50 51 54 105 124 154 270 274 312 309 307 306 307
44 58 63 62 65 68 73 74 74 69 72 67 65 65 73 78 75 73 73 77 76 70 77 65 70 67 68 68 70 68 70 84 80 96 97 73 313 313 313 322 324 325 315
57 64 62 64 65 69 69 75 79 72 70 75 77 76 79 78 76 85 79 77 76 71 62 61 63 75 78 73 74 61 60 74 68 58 50 5 336 340 340 323 311 316 305
52 57 65 71 71 71 76 79 76 72 66 68 70 72 76 79 82 82 83 85 83 81 86 86 84 65 65 67 66 60 44 36 50 33 11 342 325 331 323 312 307 309 320
56 62 72 77 82 83 85 75 72 79 80 75 70 79 81 84 92 89 83 84 86 80 82 83 74 69 65 55 47 40 32 24 19 353 326 321 309 309 307 302 300 304 293
72 73 74 76 81 85 84 78 83 80 73 77 84 86 88 83 81 82 86 89 89 81 73 69 72 58 68 42 23 15 3 353 333 282 274 281 282 292 297 296 298 294 290
88 87 85 89 88 86 84 82 89 91 86 85 90 94 94 88 86 89 91 88 87 79 70 54 37 35 24 13 347 340 335 323 319 301 288 293 298 300 296 297 289 303 299
103 89 83 85 89 92 95 99 100 96 93 88 82 72 75 87 80 77 78 89 87 83 63 46 29 4 357 349 339 324 319 312 302 290 290 296 294 291 292 277 275 281 298
114 101 96 97 107 112 105 88 90 88 89 83 76 64 56 43 79 78 61 60 55 46 27 14 359 319 329 321 317 291 279 300 284 292 290 287 282 273 267 261 266 270 277
125 114 106 92 86 82 82 79 79 89 86 83 87 82 59 31 38 43 32 48 60 8 336 293 282 288 307 305 304 281 287 316 281 279 278 280 289 292 294 295 289 276 266
140 131 122 103 99 108 124 128 114 116 115 91 79 85 65 30 10 331 310 300 264 239 242 247 286 298 295 293 280 298 308 276 282 286 293 300 309 309 307 295 288 279 269
165 165 157 153 150 162 167 169 155 156 144 158 185 188 194 227 231 240 235 245 253 269 269 272 282 300 296 294 295 303 301 307 309 303 301 302 301 293 291 291 290 294 289
187 184 188 193 199 178 177 177 183 200 207 202 212 216 216 226 217 283 303 303 301 327 310 302 307 313 312 317 316 314 309 300 293 290 287 290 289 287 284 288 286 288 280
190 193 192 186 186 194 200 206 226 228 216 229 227 223 226 242 265 287 298 302 299 311 289 299 302 306 303 304 301 299 295 289 285 290 286 282 284 287 288 289 285 277 278
203 192 187 194 192 192 199 213 226 212 248 246 239 242 243 261 264 271 283 291 292 290 269 278 280 281 281 283 283 286 289 290 297 280 281 282 282 283 285 280 280 279 279
218 225 211 203 204 205 213 219 227 242 248 243 239 247 256 260 263 268 269 280 273 257 253 262 267 271 276 278 279 279 284 286 282 281 278 276 276 278 278 273 276 277 280
211 216 210 214 217 225 224 229 236 240 245 255 264 254 248 254 260 261 262 254 260 257 254 257 254 260 266 270 272 275 275 277 280 281 277 275 272 272 270 272 275 277 279
214 219 207 208 207 211 219 227 231 236 244 246 248 248 238 204 239 236 232 237 243 247 253 256 260 259 260 263 269 271 275 274 273 270 268 270 268 266 270 275 275 279 278
212 213 212 218 223 217 220 224 229 235 240 245 249 243 233 233 242 239 236 230 233 238 243 249 257 260 260 264 264 269 268 270 268 268 269 268 268 271 269 270 273 274 275
209 214 207 220 223 224 227 229 230 235 240 247 251 249 248 246 237 239 241 242 240 239 239 243 249 250 251 255 260 263 265 267 270 269 268 267 268 269 270 272 274 274 275
211 214 215 219 224 231 229 231 234 236 241 245 251 253 239 236 241 244 248 248 246 243 237 230 236 246 245 246 248 248 254 261 266 271 271 273 274 272 271 272 274 276 276
212 217 221 222 220 225 234 238 237 240 244 245 243 244 246 245 245 246 248 252 251 250 244 236 232 239 256 255 251 247 249 255 258 260 263 265 270 274 267 267 270 273 275
212 217 221 226 227 228 236 238 241 243 245 243 247 248 249 251 253 253 254 253 251 251 252 246 237 245 254 257 257 257 259 264 261 263 265 263 262 266 265 268 270 269 266
212 218 223 225 231 233 236 239 242 241 243 247 248 248 250 252 254 256 256 254 253 254 257 254 248 253 261 267 268 266 266 267 267 262 252 254 259 263 266 272 276 277 277